User: anonymous   Login
Location: Lancaster
(34.6980°N, 118.1360°W)
Time: 11:45:45
(UTC-08:00)
Language:

Tiangong 2 - Orbit

View from above orbital plane
View from above orbital plane
View from above satellite
View from above satellite

Ground track
Ground track

The orbit data is extracted from the following two-line orbital elements,

1 41765U 16057A   18051.15183230  .00005235  00000-0  66486-4 0  9999
2 41765  42.7854 320.5012 0002993 187.1968 319.0181 15.60416740 81692
Epoch (UTC): 20 February 2018 03:38:38
Eccentricity: 0.0002993
inclination: 42.7854°
perigee height: 384 km
apogee height: 388 km
right ascension of ascending node: 320.5012°
argument of perigee: 187.1968°
revolutions per day: 15.60416740
mean anomaly at epoch: 319.0181°
orbit number at epoch: 8169

The dashed part of the orbit path shows where the satellite is in the earth's shadow,  

DLR